User: anonymous   Login
Location: Caltech
(34.1382°N, 118.1253°W)
Time: 13:02:51
(UTC-07:00)
Language:

Cosmos 2219 - Orbit

View from above orbital plane
View from above orbital plane
View from above satellite
View from above satellite

Ground track
Ground track

The orbit data is extracted from the following two-line orbital elements,

1 22219U 92076A   15209.47184507 -.00000278  00000-0 -12248-3 0  9992
2 22219 071.0584 198.3856 0018558 353.2495 006.8374 14.13561839170749
Epoch (UTC): 28 July 2015 11:19:27
Eccentricity: 0.0018558
inclination: 71.0584°
perigee height: 834 km
apogee height: 860 km
right ascension of ascending node: 198.3856°
argument of perigee: 353.2495°
revolutions per day: 14.13561839
mean anomaly at epoch: 6.8374°
orbit number at epoch: 17074

The dashed part of the orbit path shows where the satellite is in the earth's shadow,  

DLR